EW4918 Weather Reports


Display with metric or nautical units.
time (UTC)temp
F
wind
direction
speed
MPH
gust
MPH
rain 1hr
in
rain 24hr
in
rain mn
in
humidity
%
barometer
mb
20260506001511 58 257 2.0 4.0 0.00 0.12 0.12 76 1006.3
20260506001017 58 250 0.0 0.0 0.00 0.12 0.12 76 1005.9
20260506000516 58 244 0.0 2.0 0.00 0.12 0.12 75 1005.7
20260506000014 58 231 4.0 9.0 0.00 0.12 0.12 76 1005.5
20260505235514 59 250 0.0 0.0 0.00 0.12 0.12 77 1005.3
20260505234512 59 261 0.0 0.0 0.00 0.12 0.12 76 1005.1
20260505234017 59 248 1.0 5.0 0.00 0.12 0.12 76 1005.0
20260505233015 60 232 0.0 1.0 0.00 0.12 0.12 75 1005.0
20260505232514 60 273 0.0 2.0 0.00 0.12 0.12 75 1004.9
20260505232014 60 196 0.0 0.0 0.00 0.12 0.12 74 1004.8
20260505231513 61 236 0.0 1.0 0.00 0.12 0.12 73 1004.7
20260505231013 61 239 3.0 9.0 0.00 0.12 0.12 72 1004.6
20260505230015 62 274 0.0 0.0 0.00 0.12 0.12 72 1004.6
20260505225514 62 242 0.0 3.0 0.00 0.12 0.12 70 1004.4
20260505225014 62 238 1.0 8.0 0.00 0.12 0.12 69 1004.5
20260505224513 62 223 3.0 5.0 0.00 0.12 0.12 70 1004.3
20260505224012 62 286 0.0 0.0 0.00 0.12 0.12 69 1004.2
20260505223512 62 263 5.0 13.0 0.00 0.12 0.12 68 1004.1
20260505223017 62 284 9.0 14.0 0.00 0.12 0.12 68 1004.1
20260505222517 62 248 6.0 14.0 0.00 0.12 0.12 69 1003.9
20260505222016 62 256 8.0 15.0 0.00 0.12 0.12 68 1003.9
20260505221516 62 241 7.0 12.0 0.00 0.12 0.12 70 1003.7
20260505221015 62 260 2.0 9.0 0.00 0.12 0.12 72 1003.7
20260505220515 63 238 0.0 1.0 0.00 0.12 0.12 76 1003.7
20260505220013 63 238 0.0 4.0 0.00 0.12 0.12 74 1003.7
20260505215512 63 236 0.0 0.0 0.00 0.12 0.12 75 1003.8
20260505215012 63 251 0.0 0.0 0.00 0.12 0.12 74 1003.7
20260505214517 63 229 2.0 11.0 0.00 0.12 0.12 73 1003.6
20260505214017 64 241 0.0 1.0 0.00 0.12 0.12 75 1003.7
20260505213516 64 195 3.0 6.0 0.00 0.12 0.12 74 1003.5
20260505213015 63 204 4.0 6.0 0.00 0.12 0.12 76 1003.4
20260505212515 63 223 1.0 10.0 0.00 0.12 0.12 79 1003.4
20260505212014 63 169 2.0 6.0 0.00 0.12 0.12 79 1003.4
20260505211514 62 224 0.0 1.0 0.00 0.12 0.12 81 1003.3
20260505210512 62 214 0.0 0.0 0.00 0.12 0.12 82 1003.4
20260505210016 62 243 0.0 0.0 0.00 0.12 0.12 81 1003.5
20260505205014 62 227 0.0 0.0 0.00 0.12 0.12 83 1003.3
20260505204012 62 234 0.0 0.0 0.00 0.12 0.12 85 1003.1
20260505203511 61 226 4.0 7.0 0.00 0.12 0.12 85 1003.1
20260505203017 61 215 0.0 0.0 0.00 0.12 0.12 90 1003.1
20260505202516 60 170 0.0 0.0 0.00 0.12 0.12 91 1003.2
20260505201513 60 215 0.0 6.0 0.00 0.12 0.12 89 1003.5
20260505201013 60 183 1.0 4.0 0.00 0.12 0.12 90 1003.6
20260505200512 60 159 0.0 0.0 0.00 0.12 0.12 90 1003.5
20260505200017 60 234 0.0 0.0 0.00 0.12 0.12 91 1003.6
20260505195516 59 205 0.0 1.0 0.00 0.12 0.12 93 1003.6
20260505195016 59 240 0.0 2.0 0.00 0.12 0.12 94 1003.6
20260505194013 57 210 0.0 0.0 0.00 0.12 0.12 94 1003.6
20260505193513 57 178 0.0 0.0 0.00 0.12 0.12 95 1003.5
20260505193012 56 213 0.0 0.0 0.00 0.12 0.12 94 1003.5
20260505192512 56 189 0.0 0.0 0.00 0.12 0.12 93 1003.5
20260505192011 56 215 0.0 0.0 0.00 0.12 0.12 93 1003.6
20260505191517 56 202 1.0 6.0 0.00 0.11 0.11 92 1003.6
20260505191016 56 221 0.0 0.0 0.00 0.11 0.11 92 1003.5
20260505190515 56 203 0.0 1.0 0.00 0.11 0.11 91 1003.4
20260505190033 56 236 0.0 5.0 0.00 0.11 0.11 90 1003.6
20260505185012 57 233 2.0 16.0 0.00 0.10 0.10 90 1003.3
20260505184517 57 240 0.0 0.0 0.00 0.08 0.08 88 1003.4
20260505184017 58 257 0.0 1.0 0.00 0.04 0.04 85 1003.4
20260505183516 60 259 9.0 15.0 0.00 0.02 0.02 79 1003.2
20260505183016 62 281 12.0 19.0 0.00 0.02 0.02 74 1003.0
20260505182014 67 269 1.0 9.0 0.00 0.02 0.02 65 1002.6
20260505181513 67 223 2.0 6.0 0.00 0.02 0.02 64 1002.1
20260505181013 67 181 3.0 4.0 0.00 0.02 0.02 66 1002.1
20260505180512 66 272 3.0 6.0 0.00 0.02 0.02 66 1002.1
20260505180012 66 194 3.0 7.0 0.00 0.02 0.02 66 1002.1
20260505175516 66 256 1.0 7.0 0.00 0.02 0.02 66 1002.0
20260505175015 66 230 0.0 0.0 0.00 0.02 0.02 67 1002.0
20260505174013 65 223 3.0 8.0 0.00 0.02 0.02 67 1002.1
20260505173011 65 192 0.0 6.0 0.00 0.02 0.02 68 1002.1
20260505172517 65 235 0.0 1.0 0.00 0.02 0.02 69 1002.0
20260505172016 64 0 0.0 4.0 0.00 0.02 0.02 68 1002.0
20260505171516 64 254 2.0 16.0 0.00 0.02 0.02 69 1002.0
20260505170514 63 213 0.0 0.0 0.00 0.02 0.02 74 1002.0
20260505170013 63 239 0.0 0.0 0.00 0.02 0.02 75 1002.0
20260505165512 64 280 6.0 13.0 0.00 0.02 0.02 73 1002.1
20260505165017 64 236 4.0 10.0 0.00 0.02 0.02 73 1002.1
20260505164517 65 238 1.0 5.0 0.00 0.01 0.01 69 1002.1
20260505164016 66 269 0.0 0.0 0.00 0.01 0.01 68 1002.1
20260505163515 66 221 0.0 0.0 0.00 0.01 0.01 64 1002.0
20260505163015 67 191 1.0 5.0 0.00 0.01 0.01 60 1002.0
20260505162514 67 196 0.0 0.0 0.00 0.01 0.01 59 1001.8
20260505162014 68 205 2.0 7.0 0.00 0.01 0.01 58 1001.8
20260505161514 69 265 1.0 4.0 0.00 0.01 0.01 57 1001.8
20260505161013 69 195 3.0 5.0 0.00 0.01 0.01 56 1001.8
20260505160512 69 219 4.0 12.0 0.00 0.01 0.01 56 1001.9
20260505153012 68 252 3.0 11.0 0.00 0.01 0.01 58 1002.2
20260505152511 68 234 3.0 12.0 0.00 0.01 0.01 58 1002.2
20260505152017 68 225 4.0 15.0 0.00 0.01 0.01 58 1002.3
20260505151516 68 174 0.0 2.0 0.00 0.01 0.01 57 1002.1
20260505151016 69 196 8.0 12.0 0.00 0.01 0.01 56 1002.0
20260505150515 69 209 6.0 10.0 0.00 0.01 0.01 58 1002.1
20260505140512 65 235 0.0 3.0 0.00 0.01 0.01 65 1002.6
20260505125012 61 165 0.0 2.0 0.00 0.01 0.01 72 1003.1
20260505124512 61 186 8.0 14.0 0.00 0.01 0.01 72 1003.0
20260505124011 60 175 1.0 6.0 0.00 0.01 0.01 73 1003.0
20260505123517 60 200 0.0 2.0 0.00 0.01 0.01 74 1003.1
20260505122515 59 165 0.0 5.0 0.00 0.01 0.01 75 1003.1
20260505121512 59 196 2.0 11.0 0.00 0.01 0.01 76 1003.0
20260505121012 59 208 3.0 10.0 0.00 0.01 0.01 77 1003.1
20260505120015 59 166 6.0 11.0 0.00 0.01 0.01 77 1003.2
20260505115017 58 212 2.0 13.0 0.00 0.01 0.01 78 1003.2
20260505114517 58 180 5.0 9.0 0.00 0.01 0.01 77 1003.1
20260505114016 58 216 6.0 13.0 0.00 0.01 0.01 77 1002.9
20260505113013 57 184 4.0 11.0 0.00 0.01 0.01 76 1003.2
20260505112513 57 178 0.0 0.0 0.00 0.01 0.01 76 1003.2
20260505112012 57 207 0.0 1.0 0.00 0.01 0.01 76 1003.1
20260505111511 57 201 0.0 0.0 0.00 0.01 0.01 76 1003.0
20260505111011 57 180 0.0 0.0 0.00 0.01 0.01 76 1002.8
20260505110516 56 190 5.0 10.0 0.00 0.01 0.01 76 1002.9
20260505101513 56 185 1.0 3.0 0.00 0.01 0.01 76 1002.8
20260505101012 56 150 2.0 6.0 0.00 0.01 0.01 76 1002.8
20260505100512 56 182 4.0 11.0 0.00 0.01 0.01 76 1002.8
20260505100017 56 196 1.0 14.0 0.00 0.01 0.01 75 1002.8
20260505095516 56 194 0.0 9.0 0.00 0.01 0.01 75 1002.8
20260505094513 56 173 0.0 0.0 0.00 0.01 0.01 75 1002.8
20260505094013 56 189 3.0 10.0 0.00 0.01 0.01 75 1002.8
20260505093512 56 178 0.0 1.0 0.00 0.01 0.01 76 1002.8
20260505093011 56 175 0.0 2.0 0.00 0.01 0.01 75 1002.9
20260505092015 56 194 4.0 11.0 0.00 0.01 0.01 75 1002.9
20260505091515 56 190 1.0 4.0 0.00 0.01 0.01 75 1003.0
20260505091014 56 180 0.0 2.0 0.00 0.01 0.01 75 1003.1
20260505090513 56 166 0.0 3.0 0.00 0.01 0.01 74 1003.1
20260505090013 56 190 0.0 2.0 0.00 0.01 0.01 74 1003.2
20260505085512 55 182 0.0 0.0 0.00 0.01 0.01 74 1003.3
20260505085017 55 173 0.0 6.0 0.00 0.01 0.01 74 1003.3
20260505084516 55 190 4.0 6.0 0.00 0.01 0.01 75 1003.3
20260505084016 55 178 0.0 2.0 0.00 0.01 0.01 76 1003.3
20260505083515 55 183 1.0 3.0 0.00 0.01 0.01 75 1003.4
20260505083014 56 181 2.0 8.0 0.00 0.01 0.01 74 1003.5
20260505082514 57 194 0.0 0.0 0.00 0.00 0.00 73 1003.5
20260505082013 57 182 0.0 0.0 0.00 0.00 0.00 67 1003.9
20260505081513 57 192 0.0 1.0 0.00 0.00 0.00 65 1003.8
20260505080516 57 186 0.0 0.0 0.00 0.00 0.00 65 1003.2
20260505080016 57 192 0.0 0.0 0.00 0.00 0.00 65 1003.1
20260505075515 57 180 0.0 0.0 0.00 0.00 0.00 65 1003.2
20260505075013 57 189 0.0 0.0 0.00 0.00 0.00 64 1003.2
20260505073515 57 169 0.0 0.0 0.00 0.00 0.00 64 1003.2
20260505073015 57 183 1.0 3.0 0.00 0.00 0.00 64 1003.2
20260505072514 57 165 0.0 0.0 0.00 0.00 0.00 64 1003.2
20260505072013 57 189 0.0 1.0 0.00 0.00 0.00 63 1003.1
20260505071512 57 186 0.0 0.0 0.00 0.00 0.00 64 1003.1
20260505071012 56 186 1.0 5.0 0.00 0.00 0.00 64 1003.1
20260505070517 56 171 0.0 1.0 0.00 0.00 0.00 64 1003.1
20260505070016 56 196 0.0 0.0 0.00 0.00 0.00 64 1003.2
20260505065515 56 186 0.0 0.0 0.00 0.01 0.00 64 1003.2
20260505065013 56 183 0.0 0.0 0.00 0.02 0.00 63 1003.2
20260505064011 56 192 0.0 0.0 0.00 0.03 0.00 63 1003.3
20260505063517 56 200 0.0 1.0 0.00 0.03 0.00 63 1003.4
20260505063016 56 194 1.0 4.0 0.00 0.03 0.00 63 1003.4
20260505062516 56 180 0.0 0.0 0.00 0.03 0.00 63 1003.4
20260505062015 56 180 2.0 6.0 0.00 0.03 0.00 63 1003.5
20260505061514 56 188 0.0 0.0 0.00 0.03 0.00 62 1003.5
20260505060512 56 182 0.0 0.0 0.00 0.03 0.00 62 1003.6
20260505060017 56 200 2.0 9.0 0.00 0.03 0.00 62 1003.5
20260505055516 56 200 0.0 1.0 0.00 0.03 0.00 62 1003.6
20260505055014 56 177 1.0 5.0 0.00 0.03 0.00 61 1003.6
20260505054012 57 183 0.0 0.0 0.00 0.03 0.00 61 1003.6
20260505053512 57 187 1.0 9.0 0.00 0.03 0.00 60 1003.5
20260505053011 57 176 0.0 1.0 0.00 0.03 0.00 60 1003.6
20260505052015 57 180 1.0 3.0 0.00 0.03 0.00 59 1003.7
20260505051514 57 178 0.0 0.0 0.00 0.03 0.00 58 1003.7
20260505051013 58 159 0.0 0.0 0.00 0.03 0.00 58 1003.7
20260505050513 58 187 0.0 0.0 0.00 0.03 0.00 59 1003.8
20260505041510 57 188 0.0 0.0 0.00 0.04 0.00 59 1003.8
20260505041016 57 186 4.0 9.0 0.00 0.04 0.00 60 1003.8
20260505040515 56 194 1.0 7.0 0.00 0.04 0.00 61 1003.8
20260505040015 56 184 0.0 0.0 0.00 0.04 0.00 63 1003.8
20260505035514 54 170 2.0 8.0 0.00 0.04 0.04 65 1004.0
20260505035012 53 184 0.0 0.0 0.00 0.04 0.04 68 1004.0
20260505034512 52 186 0.0 1.0 0.00 0.04 0.04 70 1004.0
20260505034017 52 189 0.0 1.0 0.00 0.04 0.04 72 1004.0
20260505033517 52 187 0.0 0.0 0.00 0.04 0.04 73 1004.0
20260505033016 51 188 0.0 0.0 0.00 0.04 0.04 73 1004.1
20260505032515 51 161 0.0 0.0 0.00 0.04 0.04 74 1004.1
20260505032014 51 165 0.0 0.0 0.00 0.05 0.04 75 1004.2
20260505031012 51 182 0.0 0.0 0.00 0.05 0.04 76 1004.3
20260505030511 51 182 0.0 0.0 0.00 0.05 0.04 77 1004.3
20260505025515 51 183 0.0 0.0 0.00 0.05 0.04 77 1004.3
20260505025013 52 183 0.0 0.0 0.00 0.05 0.04 77 1004.3
20260505024512 52 183 0.0 0.0 0.00 0.05 0.04 77 1004.4
20260505024011 52 183 0.0 0.0 0.00 0.05 0.04 76 1004.4
20260505023015 53 183 0.0 0.0 0.00 0.05 0.04 74 1004.6
20260505022514 53 183 0.0 0.0 0.00 0.05 0.04 74 1004.5
20260505022013 54 183 0.0 0.0 0.00 0.05 0.04 72 1004.6
20260505021011 54 183 0.0 0.0 0.00 0.05 0.04 68 1004.6
20260505020517 54 184 0.0 0.0 0.00 0.05 0.04 67 1004.8
20260505020016 55 184 0.0 0.0 0.00 0.05 0.04 67 1004.7
20260505015515 55 184 0.0 0.0 0.00 0.05 0.04 67 1004.8
20260505015015 55 184 0.0 0.0 0.00 0.05 0.04 67 1004.8
20260505014513 55 184 0.0 0.0 0.00 0.05 0.04 67 1004.8
20260505014012 55 184 0.0 0.0 0.00 0.05 0.04 67 1004.9
20260505013016 55 184 0.0 0.0 0.00 0.05 0.04 66 1004.8
20260505012515 55 183 0.0 0.0 0.00 0.05 0.04 67 1004.7
20260505012015 55 183 0.0 0.0 0.00 0.05 0.04 67 1004.7
20260505011514 55 182 0.0 0.0 0.00 0.05 0.04 67 1004.8
20260505011014 55 164 0.0 0.0 0.00 0.05 0.04 67 1004.7
20260505010513 55 163 0.0 0.0 0.00 0.05 0.04 67 1004.5
20260505010012 56 163 0.0 0.0 0.00 0.05 0.04 67 1004.6
20260505004011 57 160 0.0 0.0 0.00 0.05 0.04 67 1004.4
20260505003517 57 160 0.0 0.0 0.00 0.05 0.04 66 1004.4
20260505003016 58 160 0.0 0.0 0.00 0.05 0.04 64 1004.4
20260505002516 59 159 0.0 1.0 0.00 0.05 0.04 60 1004.4